Location: ???????
(55.5043°N, 38.7804°E)
Time: 11:23:40
(UTC+00:00)

Daily predictions for brighter satellites

Satellite Brightness Start Highest point End
(mag) Time Altitude Azimuth Time Altitude Azimuth Time Altitude Azimuth
COSMOS 2428 2.9 16:06:09 10° NNW 16:11:51 63° NE 16:17:33 10° SE
Meteor 2-9 Rocket 4.5 16:07:58 10° SSE 16:13:09 44° E 16:18:15 10° NNE
USA 307 4.5 16:12:42 10° W 16:15:54 25° SSW 16:19:06 10° SSE
Cosmos 1833 4.5 16:10:36 10° S 16:15:55 46° ESE 16:21:16 10° NE
Cosmos 1707 2.7 16:12:38 10° N 16:16:25 59° ENE 16:20:10 10° SSE
Cosmos 1727 Rocket 4.1 16:14:10 10° S 16:20:22 61° E 16:26:33 10° NNE
CSL-04 Debris 4.3 16:15:18 10° SE 16:20:34 56° ENE 16:25:54 10° N
YAOGAN 1 3.3 16:17:32 10° S 16:21:48 60° WSW 16:26:06 10° NNW
SL-14 R/B 4.5 16:20:15 10° N 16:23:27 24° ENE 16:26:36 10° ESE
Cosmos 1536 3.0 16:20:04 10° SSW 16:23:59 76° WNW 16:27:56 10° N
Cosmos 676 Rocket 4.0 16:19:29 10° NNW 16:24:44 81° ENE 16:29:58 10° SSE
BREEZE-M DEB (TANK) 4.5 16:21:42 10° SW 16:25:19 42° SSE 16:36:14 10° E
Cosmos 2061 Rocket 4.5 16:20:04 10° N 16:26:12 43° ENE 16:32:17 10° SE
Feng Yun 1-1 Rocket 4.3 16:21:10 10° SSE 16:26:43 83° ENE 16:32:27 10° NNW
USA 215 3.3 16:20:15 10° ENE 16:26:50 78° SSE 16:33:24 10° WSW
Cosmos 2082 Rocket 3.9 16:26:48 10° WSW 16:31:59 35° NW 16:37:10 10° NNE
CZ-4 R/B 1.6 16:28:45 10° S 16:32:34 71° WSW 16:36:28 10° NNW
COSMO-SKYMED 1 3.9 16:30:21 10° N 16:34:30 44° WNW 16:38:39 10° SW
Cosmos 1674 2.5 16:31:26 10° N 16:35:10 75° ENE 16:38:53 10° SSE
Landsat 7 3.8 16:31:30 10° SSE 16:36:10 67° ENE 16:40:53 10° N
Cosmos 2360 Rocket 3.8 16:32:56 10° NW 16:38:06 37° WSW 16:43:14 10° S
Cosmos 1741 Rocket 4.3 16:33:31 10° NNW 16:38:38 49° NE 16:43:41 10° SE
CZ-4C R/B 3.4 16:34:06 10° WNW 16:39:54 44° N 16:47:05 10° E
Terra 3.8 16:41:57 10° ENE 16:44:17 14° NE 16:46:38 10° NNE
USA 229 DEB 3.7 16:38:11 10° SW 16:44:36 85° NW 16:51:43 10° NE
USA 229 3.7 16:38:17 10° SW 16:44:42 85° NW 16:51:49 10° NE
NOSS 2-2 (C) 4.4 16:42:18 10° W 16:45:26 37° NNW 16:49:03 10° NE
Okean 2 3.8 16:42:39 10° N 16:46:33 43° ENE 16:50:26 10° SE
Cosmos 1459 Rocket 3.9 16:40:41 10° N 16:46:47 87° E 16:52:51 10° S
EP 1 4.4 16:44:05 10° SW 16:47:17 81° SE 16:49:59 10° NE
Cosmos 1954 Rocket 4.4 16:42:41 10° NNW 16:47:53 65° WSW 16:53:04 10° SSE
SL-16 R/B 3.4 16:43:53 10° NNW 16:48:52 29° NNE 16:53:07 13° E
SPOT 5 4.4 16:47:42 13° E 16:50:19 20° NE 16:53:46 10° N
Cosmos 1725 Rocket 4.0 16:45:26 10° N 16:51:37 66° ENE 16:57:45 10° SSE
Cosmos 1437 Rocket 3.0 16:49:04 10° SSW 16:53:08 81° WNW 16:57:13 10° NNE
SJ 16-02 3.5 16:51:06 10° N 16:53:09 13° NE 16:55:11 10° ENE
Cosmos 968 Rocket 4.3 16:48:54 10° NNW 16:53:40 35° NE 16:57:13 16° ESE
Okean 1-7 3.4 16:49:45 10° NNW 16:54:08 69° W 16:58:28 10° S
Cosmos 1933 Rocket 3.5 16:49:57 10° S 16:54:13 63° E 16:58:32 10° NNE
Cosmos 2344 4.3 16:51:28 10° W 16:58:40 51° N 17:07:21 10° ENE
Okean 3 4.0 16:54:35 10° NNW 16:58:44 60° W 17:02:54 10° S
BREEZE M DEB (TANK) 3.4 16:57:11 10° SW 16:59:06 19° S 16:59:40 18° SSE
ISS -2.9 16:56:52 10° SW 16:59:55 33° SSE 17:01:30 21° ESE
SL-27 R/B 2.5 16:58:35 10° S 17:01:45 46° ESE 17:04:55 10° NE
H-2A R/B 3.8 17:00:46 18° ESE 17:03:02 26° ENE 17:06:45 10° N
Cosmos 1869 Rocket 3.8 16:59:26 10° SSE 17:03:31 43° E 17:07:39 10° NNE
Cosmos 1802 Rocket 4.0 16:57:42 10° NNW 17:03:58 89° W 17:10:17 10° S
Cosmos 1726 2.8 17:01:56 13° SSE 17:04:30 30° E 17:07:37 10° NNE
Exosat Rocket 3.9 17:01:18 10° SSW 17:06:30 65° ESE 17:13:20 10° NE
Cosmos 1733 3.5 17:03:08 10° SSE 17:06:42 41° E 17:10:17 10° NNE
Resurs 01 Rocket 1.7 17:02:40 12° SE 17:06:43 57° ENE 17:11:04 10° N
Ariane Rocket 3.8 17:04:46 18° ESE 17:07:48 33° ENE 17:12:19 10° N
MetOp-A 4.5 17:04:05 15° SE 17:08:08 45° ENE 17:13:03 10° N
ERS-1 Rocket 4.3 17:06:02 17° E 17:08:25 24° NE 17:12:21 10° N
NOSS 3-1 (A) 4.1 17:05:36 10° W 17:11:09 55° NNW 17:17:59 10° NE
USA 186 2.7 17:09:06 10° S 17:12:06 46° W 17:15:09 10° NNW
NOSS 3-2 (A) 4.3 17:07:03 10° NW 17:14:10 66° SW 17:22:16 11° SSE
Spot 1 4.4 17:11:14 10° NNE 17:16:04 88° WNW 17:21:08 10° SSW
ATLAS 3B R/B 3.7 17:12:57 10° WNW 17:19:50 45° N 17:27:06 10° ENE
Cosmos 1626 4.1 17:19:20 10° NNW 17:22:27 28° W 17:25:33 10° SSW
Cosmos 1371 Rocket 4.0 17:17:40 10° SSW 17:22:57 85° WNW 17:28:14 10° NNE
Cosmos 2016 Rocket 4.1 17:16:54 10° NNW 17:23:01 79° W 17:29:07 10° S
NOSS 3-2 (C) 4.0 17:16:10 10° NW 17:23:18 84° SW 17:29:43 19° SE
Landsat 5 3.6 17:20:45 10° NNE 17:24:25 43° E 17:27:29 14° S
Meteor 2-10 3.9 17:20:48 10° S 17:25:43 58° E 17:30:44 10° NNE
Cosmos 2237 Rocket 2.1 17:20:09 10° NNW 17:25:51 81° NE 17:29:43 21° SE
CSL-04 Rocket 4.2 17:20:46 10° S 17:26:17 62° WSW 17:31:47 10° NNW
USA 281 3.8 17:19:53 10° NNE 17:26:20 59° NW 17:32:45 10° SW
PKM 3.9 17:22:54 10° WNW 17:27:11 65° SSW 17:28:37 31° SE
Cosmos 2123 Rocket 4.0 17:23:04 10° S 17:29:20 81° E 17:35:43 10° NNE
CENTAUR R/B 3.7 17:23:03 10° NW 17:30:50 57° SW 17:39:15 11° SSE
Cosmos 2056 Rocket 3.6 17:26:30 10° SSW 17:31:38 79° WNW 17:36:47 10° NNE
Okean-O 3.2 17:30:02 10° S 17:34:23 58° WSW 17:38:48 10° NNW
GEOS 3 Rocket 3.9 17:29:37 10° NE 17:35:01 76° NW 17:40:24 10° WSW
USA 238 DEB 3.9 17:29:31 10° NW 17:36:42 85° SW 17:41:48 23° SE
USA 238 3.9 17:29:37 10° NW 17:36:48 85° SW 17:41:52 24° SE
Cosmos 1766 3.9 17:37:18 33° E 17:37:18 33° E 17:40:31 10° NNE
Meteor 1-24 Rocket 4.4 17:33:21 10° N 17:38:49 39° ENE 17:41:14 28° ESE
Cosmos 1674 Rocket 3.8 17:37:20 10° N 17:41:34 46° ENE 17:42:45 37° ESE
Cosmos 2221 Rocket 3.7 17:37:47 10° N 17:42:11 56° ENE 17:43:46 35° SE
IRS-1A Rocket 4.3 17:38:17 19° SSE 17:42:40 79° ENE 17:48:33 10° NNW
NOSS 0 Rocket 4.4 17:36:54 10° NW 17:42:59 58° WSW 17:48:04 15° SSE
SPOT 1/Viking Rocket 3.8 17:38:09 10° S 17:43:19 68° WSW 17:48:33 10° NNW
Cosmos 1850 Rocket 4.4 17:38:10 10° NNW 17:43:26 64° WSW 17:47:35 17° S
Cosmos 1975 3.5 17:39:35 10° SSW 17:43:29 56° WNW 17:47:26 10° N
Cosmos 1900 4.2 17:40:10 10° SSW 17:45:02 63° SE 17:49:54 10° NE
Cosmos 1624 Rocket 4.5 17:40:05 10° SW 17:45:22 66° WNW 17:50:43 10° NNE
Cosmos 1980 3.8 17:40:59 10° NW 17:46:41 75° WSW 17:50:16 23° SSE
Okean O Rocket 4.1 17:43:25 10° SW 17:46:48 21° W 17:50:11 10° NW
USA 245 3.6 17:46:55 36° ENE 17:46:55 36° ENE 17:50:19 10° N
Cosmos 1733 Rocket 3.3 17:46:58 39° SE 17:47:50 45° E 17:51:58 10° NNE
NOSS 8 (F) 4.3 17:46:05 10° NW 17:49:10 75° NE 17:49:44 57° ESE
Iridium 4 Rocket 3.8 17:45:14 10° NNW 17:49:23 51° W 17:53:25 10° SSW
Cosmos 2219 Rocket 4.3 17:46:32 10° NW 17:50:57 24° WSW 17:55:22 10° SSW
MetOp-B 4.1 17:49:23 27° SSE 17:52:21 77° ENE 17:57:44 10° NNW
CARTOSAT-1 3.5 17:50:56 29° SSE 17:53:08 86° WSW 17:57:28 10° NNW
Cosmos 1378 Rocket 3.6 17:49:51 10° N 17:54:13 62° ENE 17:55:26 44° SE
Cosmos 2098 Rocket 4.2 17:50:22 10° SSW 17:55:45 69° WNW 18:02:18 10° N
COSMOS 2428 4.2 17:50:46 10° NW 17:55:51 33° WSW 18:00:54 10° S
Cosmos 1805 3.3 17:52:06 10° SSW 17:55:55 76° WNW 17:59:46 10° N
Cosmos 1110 Rocket 4.1 17:51:58 10° S 17:56:59 51° ESE 18:02:01 10° NE
Meteor 2-5 Rocket 4.0 17:51:56 10° N 17:57:36 54° ENE 17:59:44 36° SE
Cosmos 1943 4.4 17:53:11 10° NNW 17:58:04 29° NNE 18:00:25 22° ENE
MOS 1 4.5 17:54:39 17° S 17:59:10 73° WSW 18:04:55 10° NNW
SL-14 R/B 4.3 17:56:02 10° NNW 17:59:43 43° W 18:02:28 16° SSW
NOSS 8 (E) 4.2 17:57:34 10° NW 18:00:39 86° NE 18:00:54 76° ESE
Cosmos 1452 Rocket 3.4 18:04:06 10° SSW 18:09:22 79° ESE 18:14:41 10° NNE
Spot 2 4.4 18:08:10 44° SE 18:09:41 70° ENE 18:14:34 10° NNW
USA 215 3.3 18:05:30 23° E 18:09:57 79° N 18:16:31 10° W
Cosmos 1513 Rocket 4.4 18:04:12 10° N 18:10:16 70° ENE 18:12:45 37° SSE
H-2A R/B 4.3 18:07:23 10° NE 18:08:01 12° NE 18:08:01 12° NE
Cosmos 2297 Rocket 2.3 18:08:51 28° S 18:11:33 49° ESE 18:16:59 10° NE
ARIANE 5 R/B 3.9 18:15:52 25° NE 18:15:52 25° NE 18:19:15 10° N
Cosmos 1331 Rocket 3.9 18:12:09 17° S 18:16:02 64° ESE 18:21:10 10° NNE
Cosmos 192 4.4 18:11:29 10° SSW 18:16:27 82° WNW 18:21:27 10° NNE
Terra 1.8 18:20:31 55° E 18:21:02 58° ENE 18:25:42 10° N
Cosmos 1025 Rocket 4.0 18:17:26 10° N 18:20:58 34° NE 18:20:58 34° NE
deb Chang Zheng 4 3.4 18:23:50 64° NE 18:23:50 64° NE 18:27:26 10° NNW
ADEOS Rocket 3.2 18:21:27 41° SE 18:23:48 68° ENE 18:30:50 10° NNW
Cosmos 2227 Rocket 3.0 18:28:41 33° ENE 18:28:41 33° ENE 18:32:20 10° NE
SPOT 5 2.7 18:26:53 60° SSE 18:27:45 88° WSW 18:32:38 10° NNW
BREEZE-M DEB (TANK) 4.4 18:24:42 10° W 18:27:39 22° SW 18:27:39 22° SW
Cosmos 2034 Rocket 4.1 18:22:18 10° N 18:28:28 59° ENE 18:29:51 48° ESE
CZ-4C R/B 2.9 18:22:44 10° NW 18:29:20 74° NE 18:32:25 40° ESE
Cosmos 1975 Rocket 4.0 18:25:20 10° N 18:28:52 35° NE 18:28:52 35° NE
Cosmos 1470 4.0 18:33:36 31° NNE 18:33:36 31° NNE 18:35:48 10° NNE
Meteor 2-15 4.3 18:25:51 10° NNW 18:32:03 87° ENE 18:34:10 44° SSE
SJ 16-02 1.8 18:28:30 10° NNW 18:32:32 46° NE 18:32:32 46° NE
Meteor 2-8 Rocket 4.3 18:26:48 10° N 18:32:58 82° ENE 18:34:53 47° SSE
SL-16 R/B 2.1 18:27:59 10° NW 18:33:44 88° ENE 18:35:00 57° SE
Cosmos 1271 Rocket 3.6 18:36:48 42° NNE 18:36:48 42° NNE 18:39:21 10° NNE
Cosmos 968 Rocket 3.9 18:30:39 10° NW 18:35:44 55° WSW 18:37:13 40° SSW
ISS -1.6 18:33:09 10° WSW 18:34:27 20° WSW 18:34:27 20° WSW
Meteor 2-15 Rocket 4.4 18:30:42 10° N 18:36:53 76° ENE 18:38:27 52° SSE
H-2A R/B 3.1 18:37:07 46° SW 18:38:03 56° WSW 18:42:26 10° NNW
Cosmos 1726 4.0 18:36:05 10° SW 18:39:08 27° WNW 18:42:14 10° N
Resurs 01 Rocket 3.7 18:40:12 11° SW 18:43:32 23° W 18:47:06 10° NW
Ariane Rocket 3.6 18:44:56 37° SSW 18:46:36 52° W 18:51:35 10° NNW
ERS-1 Rocket 2.9 18:46:00 64° S 18:46:44 78° WSW 18:51:48 10° NNW
Cosmos 1867 3.4 18:43:58 10° SW 18:49:24 77° SE 18:54:53 10° NE
SPOT 3 Rocket 3.9 18:53:49 47° SSW 18:54:59 59° WSW 19:00:12 10° NNW
ATLAS CENTAUR R/B 3.7 18:41:20 10° SW 18:55:16 73° SSE 18:59:12 30° ENE
Meteor 1-15 Rocket 4.2 18:54:43 53° SSW 18:56:13 89° E 19:02:08 10° NNE
Meteor 1-22 Rocket 4.3 18:55:49 62° SSE 18:56:52 77° E 19:02:57 10° NNE
Spot 2 Rocket 3.7 18:56:49 58° SSW 18:57:32 66° WSW 19:02:39 10° NNW
Meteor 2-19 Rocket 4.5 18:58:40 57° E 18:58:40 57° E 19:04:35 10° NNE
Cosmos 1302 Rocket 4.2 18:59:36 58° NE 18:59:36 58° NE 19:03:58 10° NNE
Meteor 1-12 Rocket 4.2 18:57:56 49° SSW 18:59:34 85° WNW 19:05:21 10° NNE
Cosmos 1340 Rocket 3.9 19:04:08 10° NNW 19:06:47 40° N 19:06:47 40° N
Cosmos 2237 Rocket 3.9 19:04:55 10° NW 19:09:20 24° WSW 19:11:34 19° SW
ATLAS 3B R/B 3.4 19:04:40 10° WNW 19:11:55 55° NNE 19:15:03 35° E
Cosmos 1464 Rocket 4.4 19:08:15 10° NNW 19:14:28 58° W 19:16:24 42° SSW
Cosmos 2344 4.1 19:06:39 10° WNW 19:14:28 65° NNE 19:18:52 36° E
Cosmos 1503 Rocket 4.0 19:12:09 10° NNW 19:17:03 74° NNE 19:17:03 74° NNE
Cosmos 2263 Rocket 4.1 19:24:10 16° NE 19:24:10 16° NE 19:25:27 10° NE
Meteor 1-24 Rocket 4.5 19:16:28 10° NNW 19:22:06 50° W 19:23:26 42° SW
Cosmos 2279 Rocket 4.3 19:17:33 10° N 19:23:34 52° ENE 19:23:34 52° ENE
Cosmos 1486 Rocket 4.3 19:23:45 10° NNW 19:28:43 60° W 19:28:43 60° W
Cosmos 1603 3.8 19:31:02 10° NNW 19:36:27 68° NNE 19:36:27 68° NNE
Cosmos 1943 3.3 19:37:11 10° NW 19:42:13 72° NNW 19:42:13 72° NNW
H-2A R/B 3.5 19:42:28 10° NNE 19:45:01 34° N 19:45:01 34° N
ARIANE 5 R/B 4.0 19:53:23 36° NW 19:53:23 36° NW 19:56:10 10° NNW
NOSS 3-1 (C) 4.2 19:45:45 10° NW 19:52:15 58° NNE 19:54:19 45° ENE
USA 215 3.1 19:52:49 85° SE 19:53:00 87° SSW 19:59:36 10° WNW
Cosmos 2297 Rocket 3.1 19:50:16 10° WSW 19:55:42 46° NW 20:01:10 10° NNE
Cosmos 1634 Rocket 4.0 19:51:06 10° NNW 19:57:19 73° W 19:57:19 73° W
Terra 3.5 19:59:15 25° W 19:59:15 25° W 20:02:58 10° NW
Cosmos 2219 3.6 20:01:24 58° N 20:01:24 58° N 20:06:04 10° NNE
Cosmos 2082 Rocket 4.5 20:00:08 10° NNW 20:04:06 19° NNE 20:07:56 10° ENE
ADEOS Rocket 4.4 20:08:22 29° WSW 20:09:55 32° W 20:16:05 10° NNW
Cosmos 2227 Rocket 2.8 20:10:23 49° WNW 20:11:02 52° NW 20:16:36 10° NNE
SJ 16-02 3.4 20:07:17 10° NW 20:09:26 22° WNW 20:09:26 22° WNW
SL-16 R/B 4.0 20:12:55 10° NW 20:16:53 22° W 20:16:53 22° W
ALOS 2 4.4 20:19:43 29° N 20:19:43 29° N 20:21:57 10° N
CZ-4C R/B 3.4 20:11:13 10° NW 20:17:35 47° WSW 20:17:35 47° WSW
ATLAS 2AS CENTAUR R/B 4.3 20:22:11 24° ENE 20:22:11 24° ENE 20:25:13 10° ENE
Tsikada Rocket 4.3 20:20:52 60° WNW 20:20:52 60° WNW 20:26:57 10° N
Cosmos 1833 Rocket 4.1 20:17:01 10° NNW 20:21:56 29° NNE 20:22:38 29° NE
NOSS 3-4 (A) 4.0 20:38:00 50° NE 20:38:00 50° NE 20:42:50 10° NE
NOSS 3-4 (C) 4.1 20:38:10 49° NE 20:38:10 49° NE 20:42:55 10° NE
NOSS 3-1 (A) 4.1 20:48:30 10° NW 20:55:11 66° NNE 20:56:06 61° ENE
ATLAS 3B R/B 3.0 20:55:41 10° NW 21:02:17 68° W 21:02:17 68° W
Cosmos 2263 Rocket 3.1 21:05:48 43° N 21:05:48 43° N 21:09:45 10° NNE
ATLAS CENTAUR R/B 3.6 21:00:19 10° W 21:08:52 57° WNW 21:08:52 57° WNW
Cosmos 1844 Rocket 4.3 21:17:09 27° NE 21:17:09 27° NE 21:19:43 10° NE
Cosmos 2344 4.1 21:20:56 10° NW 21:28:52 59° WSW 21:28:52 59° WSW
NOSS 3-1 (C) 4.3 21:36:32 10° NW 21:41:41 52° WNW 21:41:41 52° WNW
Resurs 1-4 Rocket 4.4 21:42:05 10° NE 21:44:25 15° ENE 21:44:25 15° ENE
Cosmos 1238 Rocket 4.5 21:48:43 54° NNE 21:48:43 54° NNE 21:53:21 10° NNE
Cosmos 1553 Rocket 4.4 21:42:01 10° N 21:47:13 61° N 21:47:13 61° N
Cosmos 2082 Rocket 3.3 21:44:28 10° NNW 21:49:45 39° NE 21:49:45 39° NE
Cosmos 2227 Rocket 4.4 21:52:06 10° WNW 21:56:24 22° NNW 22:00:43 10° NNE
Cosmos 1833 Rocket 3.8 22:00:55 10° NW 22:04:18 38° NNW 22:04:18 38° NNW
Cosmos 2278 Rocket 4.2 22:08:26 19° E 22:08:26 19° E 22:11:07 10° NE
COSMOS 2406 4.0 22:02:44 10° NNW 22:07:31 48° NNE 22:07:31 48° NNE
ATLAS 2AS CENTAUR R/B 2.8 22:09:35 81° NNE 22:09:35 81° NNE 22:16:27 10° NE
SL-16 R/B 3.5 22:12:58 39° E 22:14:02 42° ENE 22:19:54 10° N
Cosmos 1844 4.4 22:18:08 52° NNE 22:18:08 52° NNE 22:22:26 10° NNE
Lacrosse 4 Rocket 4.4 22:21:13 11° ENE 22:21:13 11° ENE 22:21:25 10° ENE
USA 229 DEB 3.8 22:13:02 10° NW 22:19:33 77° NW 22:19:33 77° NW
USA 229 3.8 22:13:07 10° NW 22:19:41 77° NW 22:19:41 77° NW
IDEFIX/ARIANE 42P 4.5 22:18:51 10° NE 22:22:12 21° E 22:22:12 21° E
GEOS 3 Rocket 4.5 22:26:49 48° NE 22:27:10 48° NNE 22:32:19 10° NW
NOSS 3-4 (A) 4.5 22:25:21 28° WNW 22:28:04 43° N 22:34:34 10° ENE
NOSS 3-4 (C) 4.5 22:25:31 29° WNW 22:28:09 43° N 22:34:40 10° ENE
Meteor 2-3 Rocket 4.3 22:28:40 10° N 22:33:12 54° NNE 22:33:12 54° NNE
Cosmos 1943 Rocket 4.4 22:37:32 15° E 22:37:37 15° E 22:40:36 10° ENE
Cosmos 2263 Rocket 4.0 22:47:28 20° NW 22:49:14 23° NNW 22:53:39 10° NNE
S3M 4.4 22:43:26 10° NNW 22:48:10 52° NW 22:48:10 52° NW
Cosmos 1844 Rocket 3.5 22:58:47 43° NNW 22:58:47 43° NNW 23:03:43 10° NNE
ADEOS II 3.3 22:56:01 10° NNE 23:00:36 33° E 23:00:36 33° E
CZ-2D R/B 2.8 22:58:18 10° NNE 23:02:42 48° ENE 23:02:42 48° ENE
Cosmos 2315 Rocket 4.1 22:58:34 10° NNW 23:03:56 66° NW 23:03:56 66° NW
Cosmos 841 Rocket 4.2 23:09:33 49° N 23:09:33 49° N 23:13:40 10° NNE
Resurs 1-4 Rocket 2.3 23:20:38 10° NNE 23:25:30 70° NE 23:25:30 70° NE
Cosmos 2266 Rocket 4.1 23:26:29 61° NW 23:26:29 61° NW 23:32:07 10° N
Thor Agena Rocket 3.9 23:28:01 10° NNE 23:32:54 55° E 23:32:54 55° E
Cosmos 2082 Rocket 3.4 23:28:37 10° NW 23:31:34 31° NW 23:31:34 31° NW
Nadezhda 1 Rocket 4.3 23:30:59 10° N 23:37:04 61° ENE 23:39:28 37° SE
ATLAS 5 CENTAUR R/B 3.9 23:40:37 13° E 23:40:37 13° E 23:41:55 10° E
Cosmos 1655 Rocket 4.1 23:39:57 60° WNW 23:39:57 60° WNW 23:46:06 10° N
USA 81 4.4 23:35:01 10° N 23:39:16 55° NW 23:39:16 55° NW
Meteor 2-12 Rocket 4.3 23:46:08 70° SSE 23:46:48 80° E 23:52:53 10° NNE
NPP 3.5 23:44:52 10° NNE 23:50:15 82° WNW 23:50:15 82° WNW
Cosmos 2278 Rocket 2.0 23:50:16 86° S 23:50:24 88° ESE 23:56:06 10° NE
AQUA 3.9 23:48:54 10° NNE 23:53:19 74° NE 23:53:19 74° NE
Cosmos 1570 Rocket 4.0 23:54:03 78° NW 23:54:03 78° NW 23:59:16 10° NNE
Cosmos-2242 4.2 23:54:07 36° E 23:54:24 36° E 23:58:22 10° NNE
ALOS 3.9 23:51:04 10° NNE 23:55:06 28° E 23:56:37 24° SE
Cosmos 1606 4.0 23:56:58 37° NNE 23:56:58 37° NNE 23:59:21 10° NNE
